STARLINK-32843 (62814 NORAD) Tracking and Keplerian Element Data

This shows tracking and keplerian element data for the satellite.

Feedback or suggestion? Click here.




ElementValue
Catalog62814
NameSTARLINK-32843
Epoch Orbit5099
Epoch Day354.18074744
Epoch Year2025
RAAN319.0207
Inclination53.1624
Eccentricity0.0001214
Argument of Perigee84.6553
Mean Anonmoly275.4587
Mean Motion15.30201576
Decay Rate0.00021895
L11 62814U 25018J 25354.18074744 .00021895 00000+0 74915-3 0 9994
L22 62814 53.1624 319.0207 0001214 84.6553 275.4587 15.30201576 50996



Live tracking and technical data element details for STARLINK-32843 (NORAD 62814). STARLINK-32843 can be tracked NOW for your location showing map with azimuth and elevation plus other details from your city location.







IsCatalogInMostPopularTable: catalog: 62814, numindb: 254
Update: records affected: 1



GetName: 62814 STARLINK-32843

Hit Count: updated at: Tue, 20 Jan 2026 18:52:26 GMT